Paris, TX

5:12 AM CDT on April 22, 2018 (GMT -0500)
Cox

Weather History for KPRX - January, 2014

Change the Weather History Date:

Wednesday, January 8, 2014

  Actual Average Record
Temperature  
Mean Temperature 34 °F -  
Max Temperature 41 °F 50 °F 73 °F (2006)
Min Temperature 26 °F 33 °F 14 °F (2015)
Degree Days  
Heating Degree Days 32    
Moisture  
Dew Point 21 °F    
Average Humidity 55    
Maximum Humidity 75    
Minimum Humidity 41    
Precipitation  
Precipitation 0.00 in - - ()
Sea Level Pressure  
Sea Level Pressure 30.23 in    
Wind  
Wind Speed 12 mph (ESE)    
Max Wind Speed 17 mph    
Max Gust Speed 20 mph    
Visibility 10 miles    
Events      
Averages and records for this station are not official NWS values.
T = Trace of Precipitation, MM = Missing Value Source: NWS Daily Summary

Daily Weather History Graph

Daily Weather History Graph

Search for Another Location

Airport or City:

Astronomy

Jan. 08, 2014 Rise Set
Actual Time 7:27 AM CST 5:30 PM CST
Civil Twilight 6:59 AM CST 5:57 PM CST
Nautical Twilight 6:28 AM CST 6:28 PM CST
Astronomical Twilight 5:58 AM CST 6:58 PM CST
Moon 12:14 PM CST (1/8) 12:43 AM CST (1/8)
Length of Visible Light 10h 57m
Length of Day
10h 03m
First Quarter, 56% of the Moon is Illuminated
Jan 8
First Quarter
Jan 15
Full
Jan 23
Last Quarter
Jan 30
New
Feb 6
First Quarter

Hourly Weather History & Observations

Time (CST) Temp. Windchill Dew Point Humidity Pressure Visibility Wind Dir Wind Speed Gust Speed Precip Events Conditions
12:15 AM 26.6 °F 16.8 °F 12.2 °F 55% 30.29 in 10.0 mi SE 10.4 mph - N/A   Clear
12:35 AM 26.6 °F 16.8 °F 14.0 °F 59% 30.29 in 10.0 mi SE 10.4 mph - N/A   Scattered Clouds
12:55 AM 30.2 °F 21.9 °F 14.0 °F 51% 30.29 in 10.0 mi SE 9.2 mph - N/A   Overcast
1:15 AM 32.0 °F 24.2 °F 12.2 °F 44% 30.28 in 10.0 mi SSE 9.2 mph - N/A   Overcast
1:35 AM 33.8 °F 26.4 °F 14.0 °F 44% 30.28 in 10.0 mi SE 9.2 mph - N/A   Overcast
1:55 AM 33.8 °F 26.4 °F 14.0 °F 44% 30.28 in 10.0 mi SE 9.2 mph - N/A   Overcast
2:15 AM 33.8 °F 26.4 °F 14.0 °F 44% 30.28 in 10.0 mi SE 9.2 mph - N/A   Overcast
2:35 AM 35.6 °F 28.0 °F 14.0 °F 41% 30.28 in 10.0 mi SSE 10.4 mph - N/A   Overcast
2:55 AM 35.6 °F 27.1 °F 14.0 °F 41% 30.28 in 10.0 mi SSE 12.7 mph - N/A   Overcast
3:15 AM 35.6 °F 28.0 °F 15.8 °F 44% 30.27 in 10.0 mi SE 10.4 mph - N/A   Overcast
3:35 AM 35.6 °F 27.1 °F 15.8 °F 44% 30.26 in 10.0 mi SE 12.7 mph - N/A   Overcast
3:55 AM 35.6 °F 27.5 °F 15.8 °F 44% 30.26 in 10.0 mi SSE 11.5 mph - N/A   Overcast
4:15 AM 35.6 °F 27.1 °F 15.8 °F 44% 30.26 in 10.0 mi SSE 12.7 mph - N/A   Overcast
4:35 AM 35.6 °F 26.6 °F 17.6 °F 48% 30.25 in 10.0 mi SSE 13.8 mph - N/A   Overcast
4:55 AM 35.6 °F 27.1 °F 17.6 °F 48% 30.25 in 10.0 mi SSE 12.7 mph - N/A   Overcast
5:15 AM 35.6 °F 27.5 °F 17.6 °F 48% 30.24 in 10.0 mi SSE 11.5 mph - N/A   Overcast
5:35 AM 35.6 °F 27.5 °F 19.4 °F 52% 30.24 in 10.0 mi SSE 11.5 mph - N/A   Overcast
5:55 AM 35.6 °F 27.5 °F 19.4 °F 52% 30.23 in 10.0 mi SE 11.5 mph - N/A   Overcast
6:15 AM 35.6 °F 28.0 °F 19.4 °F 52% 30.24 in 10.0 mi SSE 10.4 mph - N/A   Overcast
6:35 AM 35.6 °F 27.5 °F 19.4 °F 52% 30.25 in 10.0 mi SSE 11.5 mph - N/A   Overcast
6:55 AM 35.6 °F 28.0 °F 21.2 °F 56% 30.25 in 10.0 mi SE 10.4 mph - N/A   Overcast
7:15 AM 35.6 °F 27.1 °F 21.2 °F 56% 30.24 in 10.0 mi SE 12.7 mph - N/A   Overcast
7:35 AM 35.6 °F 27.5 °F 21.2 °F 56% 30.24 in 10.0 mi SSE 11.5 mph - N/A   Overcast
7:55 AM 35.6 °F 28.0 °F 23.0 °F 60% 30.25 in 10.0 mi SSE 10.4 mph - N/A   Overcast
8:15 AM 35.6 °F 27.5 °F 21.2 °F 56% 30.26 in 10.0 mi SE 11.5 mph - N/A   Overcast
8:35 AM 35.6 °F 28.6 °F 21.2 °F 56% 30.27 in 10.0 mi SE 9.2 mph - N/A   Overcast
8:55 AM 35.6 °F 28.6 °F 21.2 °F 56% 30.27 in 10.0 mi SE 9.2 mph - N/A   Overcast
9:15 AM 35.6 °F 27.5 °F 23.0 °F 60% 30.28 in 10.0 mi SE 11.5 mph - N/A   Overcast
9:35 AM 35.6 °F 27.1 °F 21.2 °F 56% 30.28 in 10.0 mi SE 12.7 mph - N/A   Overcast
9:55 AM 37.4 °F 29.8 °F 21.2 °F 52% 30.29 in 10.0 mi SE 11.5 mph - N/A   Overcast
10:15 AM 37.4 °F 29.3 °F 21.2 °F 52% 30.29 in 10.0 mi SE 12.7 mph - N/A   Overcast
10:35 AM 37.4 °F 30.3 °F 21.2 °F 52% 30.29 in 10.0 mi SE 10.4 mph - N/A   Overcast
10:55 AM 37.4 °F 29.3 °F 24.8 °F 60% 30.28 in 10.0 mi SE 12.7 mph 19.6 mph N/A   Overcast
11:15 AM 37.4 °F 29.3 °F 24.8 °F 60% 30.27 in 10.0 mi SE 12.7 mph - N/A   Overcast
11:35 AM 37.4 °F 28.5 °F 24.8 °F 60% 30.25 in 10.0 mi SE 15.0 mph - N/A   Overcast
11:55 AM 37.4 °F 28.5 °F 24.8 °F 60% 30.24 in 10.0 mi SSE 15.0 mph - N/A   Overcast
12:15 PM 39.2 °F 30.2 °F 24.8 °F 56% 30.23 in 10.0 mi SE 17.3 mph - N/A   Overcast
12:35 PM 39.2 °F 31.2 °F 23.0 °F 52% 30.21 in 10.0 mi SE 13.8 mph - N/A   Overcast
12:55 PM 39.2 °F 31.2 °F 23.0 °F 52% 30.20 in 10.0 mi SE 13.8 mph - N/A   Overcast
1:15 PM 39.2 °F 31.2 °F 21.2 °F 49% 30.19 in 10.0 mi ESE 13.8 mph - N/A   Overcast
1:35 PM 39.2 °F 31.2 °F 19.4 °F 45% 30.19 in 10.0 mi SE 13.8 mph - N/A   Overcast
1:55 PM 39.2 °F 31.2 °F 19.4 °F 45% 30.17 in 10.0 mi ESE 13.8 mph - N/A   Overcast
2:15 PM 41.0 °F 33.5 °F 21.2 °F 45% 30.17 in 10.0 mi SE 13.8 mph 18.4 mph N/A   Overcast
2:35 PM 41.0 °F 33.5 °F 23.0 °F 49% 30.17 in 10.0 mi ESE 13.8 mph - N/A   Overcast
2:55 PM 41.0 °F 33.9 °F 24.8 °F 53% 30.16 in 10.0 mi ESE 12.7 mph - N/A   Overcast
3:15 PM 41.0 °F 33.9 °F 23.0 °F 49% 30.16 in 10.0 mi SE 12.7 mph - N/A   Overcast
3:35 PM 41.0 °F 33.5 °F 21.2 °F 45% 30.16 in 10.0 mi ESE 13.8 mph - N/A   Overcast
3:55 PM 41.0 °F 33.1 °F 21.2 °F 45% 30.15 in 10.0 mi ESE 15.0 mph - N/A   Overcast
4:15 PM 41.0 °F 33.5 °F 23.0 °F 49% 30.15 in 10.0 mi ESE 13.8 mph - N/A   Overcast
4:35 PM 41.0 °F 33.9 °F 23.0 °F 49% 30.15 in 10.0 mi ESE 12.7 mph - N/A   Overcast
4:55 PM 39.2 °F 30.8 °F 23.0 °F 52% 30.16 in 10.0 mi ESE 15.0 mph - N/A   Overcast
5:15 PM 39.2 °F 31.6 °F 23.0 °F 52% 30.17 in 10.0 mi ESE 12.7 mph - N/A   Overcast
5:35 PM 39.2 °F 32.5 °F 24.8 °F 56% 30.17 in 10.0 mi East 10.4 mph - N/A   Overcast
5:55 PM 39.2 °F 32.0 °F 23.0 °F 52% 30.17 in 10.0 mi East 11.5 mph - N/A   Overcast
6:15 PM 37.4 °F 30.3 °F 23.0 °F 56% 30.17 in 10.0 mi East 10.4 mph - N/A   Overcast
6:35 PM 39.2 °F 32.0 °F 23.0 °F 52% 30.18 in 10.0 mi ESE 11.5 mph - N/A   Overcast
6:55 PM 37.4 °F 30.3 °F 24.8 °F 60% 30.19 in 10.0 mi East 10.4 mph - N/A   Overcast
7:15 PM 37.4 °F 30.3 °F 23.0 °F 56% 30.20 in 10.0 mi East 10.4 mph - N/A   Overcast
7:35 PM 37.4 °F 30.3 °F 24.8 °F 60% 30.20 in 10.0 mi East 10.4 mph - N/A   Overcast
7:55 PM 35.6 °F 26.6 °F 24.8 °F 65% 30.21 in 10.0 mi East 13.8 mph - N/A   Overcast
8:15 PM 35.6 °F 27.1 °F 24.8 °F 65% 30.21 in 10.0 mi East 12.7 mph - N/A   Overcast
8:35 PM 35.6 °F 28.0 °F 24.8 °F 65% 30.22 in 10.0 mi East 10.4 mph - N/A   Overcast
8:55 PM 35.6 °F 26.6 °F 24.8 °F 65% 30.22 in 10.0 mi East 13.8 mph - N/A   Overcast
9:15 PM 35.6 °F 27.1 °F 26.6 °F 70% 30.23 in 10.0 mi East 12.7 mph - N/A   Overcast
9:35 PM 35.6 °F 27.1 °F 26.6 °F 70% 30.23 in 10.0 mi East 12.7 mph - N/A   Overcast
9:55 PM 35.6 °F 27.1 °F 26.6 °F 70% 30.23 in 10.0 mi East 12.7 mph - N/A   Overcast
10:15 PM 35.6 °F 27.1 °F 26.6 °F 70% 30.23 in 10.0 mi East 12.7 mph 17.3 mph N/A   Overcast
10:35 PM 35.6 °F 28.0 °F 26.6 °F 70% 30.23 in 10.0 mi East 10.4 mph - N/A   Overcast
10:55 PM 35.6 °F 27.5 °F 28.4 °F 75% 30.23 in 10.0 mi East 11.5 mph - N/A   Overcast
11:15 PM 35.6 °F 27.1 °F 26.6 °F 70% 30.23 in 10.0 mi East 12.7 mph - N/A   Overcast
11:35 PM 35.6 °F 25.9 °F 26.6 °F 70% 30.22 in 10.0 mi East 16.1 mph - N/A   Overcast
11:55 PM 35.6 °F 26.6 °F 26.6 °F 70% 30.22 in 10.0 mi East 13.8 mph - N/A   Overcast